sat.trackr.live / text

‹ back to catalog

LEMUR-2-SIERRINI

NORAD 60579 · 2024-149DR

PAYLOAD ACTIVE UNKNOWN

§ Identity

Operator
Country
US
Launch date
2024-08-16
Launch site
AFWTR
Launch vehicle
Mass (kg)
RCS (m²)

Purposes: earth_obs

External: N2YO · Heavens-Above · Gunter

§ Orbital elements

Epoch: 2026-09-19T11:12:30.243744Z

Period
95.20 min
Inclination
97.6786°
Eccentricity
0.0004549
Mean motion
15.12661005 rev/d
Perigee alt
524.9 km
Apogee alt
531.2 km
Semi-major
6,906.2 km
B*
4.1278e-4
RAAN
345.5703°
Arg perigee
199.1973°
Mean anomaly
160.9087°
Rev number
11,470

§ Raw data

LEMUR-2-SIERRINI1 60579U 24149DR  26262.46701671  .00007155  00000+0  41278-3 0  99992 60579  97.6786 345.5703 0004549 199.1973 160.9087 15.12661005114701

JSON: /api/v1/satellites/60579 · /tle

For live sub-satellite position, see the globe view (requires WebGL).

§ Visibility from observer

Set your observer location to see the next 7 days of passes ≥ 10°. The values pass through the URL so the page stays shareable.

No JS? Fill the form by hand. The geolocation button needs JavaScript.

§ Radio — SatNOGS DB

ModeDescriptionDownlinkUplink
BPSK Mode U - Transmitter 400.581 MHz

1 transmitter · refreshed weekly from db.satnogs.org